This is the latest recevied weather packets stored in our database for station/object K5WNG. If no packets are shown the sender has not sent any weather packets the latest 10 day(s).
| Time | Temp. | Humidity | Pressure | Rain* | Wind** | Luminosity | Snow |
|---|---|---|---|---|---|---|---|
| 1778168126 | 15° C | 83% | 1018.6 hPa | 0 mm | - | 122 W/m² | - |
| 1778167827 | 15° C | 84% | 1018.4 hPa | 0 mm | - | 107 W/m² | - |
| 1778167524 | 15° C | 85% | 1018.2 hPa | 0 mm | - | 115 W/m² | - |
| 1778167224 | 15° C | 85% | 1018.1 hPa | 0 mm | - | 110 W/m² | - |
| 1778166924 | 14.44° C | 86% | 1018.3 hPa | 0 mm | - | 116 W/m² | - |
| 1778166633 | 14.44° C | 86% | 1018.4 hPa | 0 mm | - | 111 W/m² | - |
| 1778166324 | 14.44° C | 87% | 1018.4 hPa | 0 mm | - | 110 W/m² | - |
| 1778166024 | 14.44° C | 87% | 1018.5 hPa | 0 mm | - | 83 W/m² | - |
| 1778165721 | 14.44° C | 87% | 1018.7 hPa | 0 mm | - | 60 W/m² | - |
| 1778165424 | 14.44° C | 87% | 1018.7 hPa | 0 mm | - | 55 W/m² | - |
| 1778165127 | 14.44° C | 88% | 1018.6 hPa | 0 mm | - | 57 W/m² | - |
| 1778164824 | 14.44° C | 88% | 1018.5 hPa | 0 mm | - | 52 W/m² | - |
| 1778164524 | 14.44° C | 88% | 1018.4 hPa | 0 mm | - | 68 W/m² | - |
| 1778164224 | 14.44° C | 88% | 1018.2 hPa | 0 mm | - | 76 W/m² | - |
| 1778163924 | 14.44° C | 89% | 1017.9 hPa | 0 mm | - | 79 W/m² | - |
| 1778163619 | 14.44° C | 89% | 1017.9 hPa | 0 mm | - | 62 W/m² | - |
| 1778163327 | 14.44° C | 89% | 1018.1 hPa | 0 mm | - | 47 W/m² | - |
| 1778163024 | 14.44° C | 89% | 1018.2 hPa | 0 mm | - | 50 W/m² | - |
| 1778162728 | 14.44° C | 89% | 1018.2 hPa | 0 mm | - | 56 W/m² | - |
| 1778162416 | 14.44° C | 89% | 1017.9 hPa | 0 mm | - | 81 W/m² | - |
| 1778162116 | 13.89° C | 90% | 1017.8 hPa | 0 mm | - | 89 W/m² | - |
| 1778161819 | 13.89° C | 90% | 1017.8 hPa | 0 mm | - | 61 W/m² | - |
| 1778161516 | 14.44° C | 90% | 1017.6 hPa | 0 mm | - | 52 W/m² | - |
| 1778161216 | 14.44° C | 90% | 1017.4 hPa | 0 mm | - | 66 W/m² | - |
| 1778160925 | 14.44° C | 90% | 1017.4 hPa | 0 mm | - | 76 W/m² | - |
* Rain latest hour (hover to see other rain measurements)
** Current wind speed in m/s (hover to see current wind gust speed)